[[{"header":{"parameterUnit":"m.s-1","parameterCategory":1,"la1":30.2991,"la2":30.254,"lo1":-89.0895,"lo2":-89.0444,"dy":0.0017,"dx":0.0017,"nx":28,"ny":28,"refTime":"2024-05-24T03:00:00:Z","depth":0,"parameterNumber":2,"parameterNumberName":"U-component_of_WINDS"},"data":[0,0,0,0,0,0,0,0,0,0,0,0,0,0,0,0,0,0,0,0,0,0,0,0,0,0,0,0,0,0,0,0,0,0,0,0,0,0,0,0,0,0,0,0,0,0,0,0,0,0,0,0,0,0,0,0,0,0,1.4546,1.4545,0,1.4447,1.4446,1.4444,1.4343,1.4342,1.434,1.4339,1.4239,1.4238,1.4237,0,0,0,0,0,0,0,0,0,0,0,0,0,1.4647,1.4645,1.4546,1.4545,1.4543,1.4447,1.4446,1.4444,1.4343,1.4342,1.434,1.4338,1.424,1.4238,1.4237,0,0,0,0,0,0,0,0,0,0,0,0,0,1.4581,1.4645,1.4546,1.4481,1.4475,1.4447,1.4445,1.4444,1.4344,1.4341,1.4339,1.4337,1.424,1.4238,1.4236,1.4265,0,0,1.423,1.4229,0,0,0,0,0,0,0,0,1.4585,1.4577,1.4492,1.4486,1.4478,1.4405,1.4444,1.4384,1.4344,1.4393,1.4339,1.4336,1.4296,1.429,1.4276,1.4261,1.4256,1.423,1.4229,1.4228,1.4227,0,0,0,0,0,0,0,1.4589,1.4581,1.4507,1.4491,1.4482,1.4457,1.4445,1.4433,1.4358,1.4389,1.4381,1.4371,1.4292,1.4278,1.4272,1.4255,1.423,1.4228,1.4227,1.4226,1.4254,1.4256,0,0,0,0,0,0,1.4604,1.4585,1.451,1.4504,1.4527,1.4457,1.4444,1.4431,1.4358,1.4344,1.4373,1.4367,1.4282,1.4275,1.4269,1.4294,1.4228,1.4226,1.4225,1.4252,1.4254,1.4256,0,0,0,0,0,0,1.4606,1.4598,1.4514,1.4542,1.453,1.4457,1.4443,1.443,1.4415,1.4345,1.4332,1.4372,1.428,1.4271,1.4266,1.4289,1.4225,1.4223,1.425,1.4253,1.4255,1.4348,0,0,0,0,0,0,1.461,1.46,1.461,1.4543,1.4529,1.4513,1.4445,1.4429,1.4412,1.4403,1.4341,1.4329,1.4278,1.4269,1.4264,1.4285,1.4222,1.4247,1.4251,1.4254,1.4342,1.4354,1.4363,0,0,0,0,0,1.4614,1.4642,1.4611,1.4603,1.454,1.4515,1.4506,1.4447,1.4414,1.4424,1.4378,1.4331,1.4288,1.427,1.4262,1.4284,1.4245,1.425,1.4254,1.4338,1.4351,1.4363,0,0,0,0,0,0,1.4715,1.4632,1.4597,1.4605,1.4567,1.4498,1.4508,1.4464,1.4436,1.4429,1.4357,1.4343,1.4345,1.4314,1.4295,1.4306,1.426,1.4263,1.4326,1.4338,1.4348,1.4355,1.422,0,0,0,0,0,1.4738,1.4724,1.4652,1.4666,1.4648,1.4582,1.4568,1.4525,1.4484,1.4468,1.4422,1.4384,1.4361,1.4348,1.4324,1.4338,1.4321,1.4349,1.4359,1.4368,1.4371,1.4372,1.4382,1.4271,1.4271,1.4271,0,0,1.4785,1.4738,1.4734,1.4684,1.465,1.4636,1.4569,1.4559,1.4547,1.4467,1.4457,1.4422,1.4375,1.4377,1.4377,1.4352,1.4398,1.4374,1.4381,1.4379,1.4377,1.4388,1.4397,1.4274,1.4273,1.4273,0,0,1.4864,1.4829,1.4834,1.48,1.4749,1.4704,1.4705,1.4641,1.4614,1.4604,1.4542,1.4527,1.4491,1.4458,1.4437,1.45,1.4454,1.4495,1.4549,1.455,1.4559,1.4566,1.4585,1.4593,1.4498,1.4499,1.4499,0,1.493,1.4906,1.4842,1.4833,1.4812,1.4738,1.4741,1.4712,1.4656,1.4643,1.4616,1.4565,1.4529,1.4521,1.4536,1.4522,1.4519,1.4501,1.4563,1.4569,1.4575,1.4592,1.46,1.4504,1.4503,1.4502,1.4502,0,1.4988,1.4972,1.4983,1.4928,1.4908,1.4906,1.484,1.4828,1.4786,1.4744,1.4732,1.4685,1.4647,1.4643,1.4603,1.4628,1.4614,1.4576,1.4528,1.4592,1.4607,1.4613,1.4511,1.4509,1.4507,1.4506,0,0,1.5128,1.5036,1.504,1.5013,1.495,1.4936,1.493,1.4892,1.4881,1.4845,1.4836,1.4805,1.4768,1.4744,1.47,1.4702,1.475,1.4663,1.466,1.4678,1.477,1.4797,1.4806,1.4719,1.4721,1.4721,1.4773,0,1.5193,1.5176,1.5117,1.5117,1.51,1.5028,1.5022,1.4982,1.4941,1.4921,1.4876,1.4854,1.4809,1.4793,1.4792,1.4745,1.4767,1.474,1.4708,1.4708,1.472,1.4814,1.4844,1.4894,1.4779,1.478,1.478,0,1.5268,1.5233,1.5232,1.5166,1.5156,1.5152,1.511,1.5093,1.5045,1.5015,1.4986,1.4936,1.4923,1.488,1.486,1.4843,1.4826,1.4801,1.4801,1.4794,1.4747,1.4807,1.491,1.4916,1.479,1.4789,1.4788,0,1.5366,1.532,1.5311,1.5291,1.5215,1.5213,1.5181,1.5131,1.5111,1.5075,1.506,1.5025,1.5004,1.4977,1.4917,1.4892,1.4902,1.4855,1.4875,1.4877,1.488,1.488,1.4978,1.4874,1.4874,1.4874,1.4873,0,1.5443,1.5444,1.5354,1.5349,1.5347,1.5278,1.5278,1.5239,1.5195,1.518,1.5116,1.5104,1.5027,1.5005,1.4959,1.4946,1.4939,1.4913,1.49,1.4917,1.492,1.4904,1.4898,1.4875,1.4875,1.4875,1.4874,0,1.5552,1.5492,1.5477,1.5406,1.5387,1.5389,1.5327,1.5318,1.5273,1.5255,1.5246,1.5176,1.5146,1.5084,1.5039,1.5007,1.5005,1.4984,1.5021,1.5012,1.5035,1.5033,1.5124,1.5131,1.5026,1.5027,1.5028,0,1.5604,1.5603,1.553,1.5515,1.5485,1.5462,1.544,1.5373,1.5353,1.5296,1.5294,1.5259,1.5227,1.5182,1.5126,1.509,1.5066,1.51,1.506,1.5076,1.5062,1.5062,1.506,1.5109,1.5111,1.5112,1.5113,0,1.5702,1.5672,1.5643,1.5603,1.5579,1.5545,1.5507,1.5498,1.5421,1.5402,1.537,1.5345,1.5296,1.5261,1.5216,1.5182,1.5134,1.5126,1.5128,1.5144,1.5164,1.515,1.5042,1.5124,1.5123,1.5122,1.5121,1.5121,1.5782,1.5776,1.5722,1.5692,1.5656,1.5621,1.5608,1.5561,1.5533,1.5488,1.5449,1.542,1.5369,1.5302,1.5271,1.5246,1.5223,1.5227,1.5228,1.5229,1.5235,1.517,1.5238,1.5238,1.5237,1.5237,1.5237,0,1.5873,1.5835,1.5808,1.5756,1.5731,1.5688,1.5643,1.5625,1.5599,1.5556,1.5525,1.5487,1.5451,1.5392,1.5352,1.5343,1.5319,1.5334,1.5333,1.5325,1.526,1.526,1.5354,1.5354,1.5354,1.5353,1.5353,1.5353,1.5918,1.5904,1.5867,1.5834,1.5796,1.5766,1.5743,1.571,1.5674,1.5634,1.5604,1.5566,1.5515,1.5469,1.5434,1.5418,1.5404,1.5426,1.5402,1.5341,1.533,1.532,1.532,1.5424,1.5424,1.5469,1.5469,1.547]},{"header":{"parameterUnit":"m.s-1","parameterCategory":1,"la1":30.2991,"la2":30.254,"lo1":-89.0895,"lo2":-89.0444,"dy":0.0017,"dx":0.0017,"nx":28,"ny":28,"refTime":"2024-05-24T03:00:00:Z","depth":0,"parameterNumber":3,"parameterNumberName":"V-component_of_WINDS"},"data":[0,0,0,0,0,0,0,0,0,0,0,0,0,0,0,0,0,0,0,0,0,0,0,0,0,0,0,0,0,0,0,0,0,0,0,0,0,0,0,0,0,0,0,0,0,0,0,0,0,0,0,0,0,0,0,0,0,0,5.7356,5.7356,0,5.7383,5.7383,5.7384,5.7318,5.7316,5.7314,5.7312,5.7336,5.7339,5.7341,0,0,0,0,0,0,0,0,0,0,0,0,0,5.7243,5.7245,5.7356,5.7356,5.7357,5.7383,5.7383,5.7384,5.7318,5.7316,5.7313,5.7311,5.7336,5.7339,5.7342,0,0,0,0,0,0,0,0,0,0,0,0,0,5.7283,5.7246,5.7356,5.7327,5.7325,5.7383,5.7383,5.7384,5.7319,5.7316,5.7313,5.731,5.7335,5.7338,5.7342,5.7428,0,0,5.7354,5.7356,0,0,0,0,0,0,0,0,5.7281,5.7287,5.7331,5.7329,5.7327,5.7344,5.7352,5.7398,5.732,5.7321,5.7312,5.7308,5.7341,5.7344,5.7356,5.7429,5.743,5.7354,5.7357,5.7358,5.7359,0,0,0,0,0,0,0,5.7278,5.7286,5.7366,5.7332,5.7329,5.7311,5.7314,5.7361,5.7348,5.7321,5.7316,5.732,5.7339,5.7353,5.7356,5.743,5.7354,5.7358,5.736,5.7362,5.7572,5.7575,0,0,0,0,0,0,5.728,5.7284,5.7366,5.7367,5.7296,5.7316,5.7319,5.7342,5.7347,5.7345,5.7323,5.7317,5.7348,5.7352,5.7357,5.7455,5.7358,5.7362,5.7364,5.7569,5.7573,5.7576,0,0,0,0,0,0,5.7277,5.7287,5.7364,5.7324,5.7333,5.7321,5.7348,5.7344,5.7357,5.7349,5.7346,5.7339,5.7345,5.7351,5.741,5.7455,5.7364,5.7367,5.7565,5.757,5.7575,5.7655,0,0,0,0,0,0,5.7274,5.7287,5.7321,5.7326,5.7335,5.7419,5.735,5.7347,5.7364,5.7357,5.7363,5.7361,5.7343,5.7405,5.7414,5.7459,5.737,5.7561,5.7567,5.7573,5.7648,5.7662,5.7674,0,0,0,0,0,5.7271,5.7342,5.7323,5.7333,5.7377,5.7422,5.7427,5.7406,5.7368,5.7401,5.7395,5.7361,5.745,5.7412,5.7421,5.7468,5.7558,5.7565,5.7573,5.7642,5.7659,5.7673,0,0,0,0,0,0,5.7342,5.7342,5.7321,5.7397,5.741,5.7411,5.7451,5.7425,5.7448,5.744,5.7412,5.7414,5.7477,5.7479,5.7436,5.755,5.7497,5.7507,5.7547,5.7563,5.7575,5.7572,5.7373,0,0,0,0,0,5.7367,5.7405,5.7402,5.7469,5.7477,5.7463,5.7482,5.7464,5.7476,5.7481,5.748,5.7492,5.7522,5.7543,5.757,5.7649,5.7648,5.7685,5.7698,5.7709,5.7717,5.7756,5.7772,5.7601,5.7601,5.76,0,0,5.7418,5.7423,5.7448,5.7483,5.7492,5.7529,5.7468,5.7511,5.7538,5.7487,5.7542,5.7543,5.7554,5.7622,5.7652,5.7625,5.7764,5.7718,5.7727,5.7729,5.7765,5.7781,5.7795,5.7606,5.7605,5.7604,0,0,5.753,5.7539,5.7594,5.7604,5.7617,5.7607,5.762,5.7625,5.7623,5.7679,5.7641,5.7672,5.7725,5.7734,5.7745,5.786,5.7828,5.7869,5.7936,5.7974,5.7987,5.7999,5.8037,5.8052,5.7878,5.7878,5.7878,0,5.7592,5.7648,5.7626,5.7671,5.7686,5.7643,5.7697,5.7707,5.7728,5.7739,5.7709,5.7774,5.7779,5.7847,5.7875,5.7887,5.7899,5.7868,5.7988,5.7999,5.801,5.8046,5.8061,5.7883,5.7882,5.7882,5.7881,0,5.7722,5.7762,5.7804,5.7826,5.7847,5.7897,5.788,5.7903,5.7883,5.7876,5.7932,5.7936,5.7962,5.7978,5.7959,5.8043,5.8026,5.7993,5.7938,5.8031,5.8064,5.8078,5.789,5.7888,5.7887,5.7885,0,0,5.7879,5.7888,5.7904,5.7912,5.7923,5.7952,5.7999,5.8026,5.8045,5.8061,5.8098,5.8144,5.8112,5.8125,5.8107,5.8141,5.8228,5.8103,5.8103,5.8124,5.8318,5.8342,5.8358,5.8208,5.8211,5.8213,5.8316,0,5.7988,5.8069,5.805,5.8129,5.8164,5.8123,5.8163,5.8173,5.8168,5.8195,5.8189,5.822,5.8178,5.8185,5.8217,5.8211,5.8266,5.8203,5.824,5.8242,5.8236,5.8376,5.8402,5.8499,5.833,5.8332,5.8333,0,5.8126,5.8147,5.823,5.8234,5.8247,5.8284,5.8306,5.8334,5.8343,5.8337,5.8351,5.8326,5.837,5.8317,5.8376,5.8334,5.8348,5.8347,5.835,5.8351,5.8292,5.8379,5.853,5.8544,5.8354,5.8353,5.8351,0,5.8229,5.8279,5.8334,5.8343,5.8349,5.8375,5.8379,5.8386,5.8402,5.8421,5.8431,5.8455,5.8467,5.8486,5.8467,5.843,5.8528,5.8474,5.8522,5.8522,5.8543,5.8541,5.8696,5.8556,5.8556,5.8555,5.8555,0,5.8351,5.8403,5.838,5.8414,5.847,5.8447,5.8503,5.8501,5.8508,5.8539,5.8505,5.8535,5.851,5.8537,5.8523,5.8573,5.8579,5.8573,5.8569,5.8575,5.8576,5.8582,5.8574,5.8559,5.8558,5.8558,5.8557,0,5.8476,5.8463,5.852,5.8521,5.8522,5.8563,5.8563,5.8594,5.8586,5.8626,5.8634,5.8621,5.8651,5.8635,5.8666,5.8656,5.8721,5.8708,5.8717,5.8713,5.8761,5.8756,5.8924,5.8944,5.8793,5.8794,5.8795,0,5.8554,5.8592,5.8597,5.8616,5.8622,5.8653,5.867,5.8647,5.8666,5.8679,5.8708,5.8735,5.8756,5.8806,5.8799,5.8822,5.8808,5.8865,5.8811,5.8816,5.8806,5.8803,5.8806,5.8876,5.8877,5.8879,5.888,0,5.8692,5.8683,5.8709,5.8732,5.8753,5.877,5.8784,5.8801,5.8779,5.8801,5.8832,5.8848,5.888,5.8907,5.8927,5.8929,5.89,5.8898,5.8909,5.8915,5.8919,5.8915,5.8744,5.8893,5.8892,5.8891,5.889,5.889,5.8794,5.8825,5.8833,5.8862,5.887,5.8884,5.8912,5.8907,5.8933,5.8957,5.8942,5.8978,5.8985,5.9009,5.9015,5.9041,5.9018,5.9036,5.904,5.9044,5.905,5.8916,5.9045,5.9045,5.9044,5.9044,5.9044,0,5.8928,5.8931,5.8958,5.8979,5.9001,5.8973,5.8987,5.9007,5.9039,5.9049,5.907,5.9104,5.913,5.9125,5.9148,5.917,5.9157,5.9176,5.9173,5.9174,5.907,5.9056,5.9186,5.9186,5.9186,5.9186,5.9186,5.9186,5.9001,5.9052,5.9044,5.9098,5.91,5.9135,5.9145,5.9157,5.9164,5.9204,5.9225,5.9222,5.9225,5.9248,5.927,5.9267,5.9276,5.93,5.9293,5.9195,5.9181,5.9168,5.9155,5.9303,5.9303,5.9393,5.9394,5.9395]}]]